Theta_e
310 309 309 310 309 310 310 311 311 312 314 313 312 312 312 312 312 314 312 312 314 319 320 322 325 327 328 328 327 326 324 329 338 341 334 331 331 327 340 346 342 343 342 341
310 310 311 312 313 313 312 311 312 313 314 313 312 311 312 312 314 312 312 313 314 316 320 323 325 327 328 328 328 328 324 321 323 331 331 331 338 340 331 336 337 344 344 344
310 312 313 314 313 314 312 313 313 314 314 313 312 312 312 313 313 313 313 313 315 317 320 322 323 324 324 324 326 326 326 324 321 323 326 328 327 332 334 335 328 334 343 343
309 310 313 312 313 312 312 312 313 313 313 311 313 313 312 313 313 313 312 311 311 314 318 321 321 320 324 324 323 322 322 320 319 319 320 325 328 330 328 327 331 329 330 334
311 312 311 312 312 313 312 312 312 313 311 310 311 311 312 311 313 313 312 312 311 310 316 318 319 319 323 325 325 324 321 321 321 323 324 324 324 325 327 330 329 328 330 332
310 311 312 311 313 312 312 312 311 310 308 310 310 311 312 312 312 314 314 314 314 314 313 318 319 319 321 322 320 321 323 323 322 321 322 322 325 325 327 328 328 328 328 327
312 312 312 313 312 312 311 308 309 309 310 312 310 312 312 312 314 316 315 315 315 314 312 317 319 319 319 321 321 323 323 323 323 323 322 321 321 322 324 325 327 326 326 328
314 315 314 314 313 313 310 309 313 314 313 313 315 318 316 315 315 316 316 315 313 313 316 319 318 317 317 318 320 323 323 321 322 322 321 321 321 322 322 323 322 321 323 325
313 315 315 315 315 314 315 315 310 318 322 321 318 315 314 314 315 316 316 314 313 314 315 317 316 317 316 316 319 321 321 319 320 320 321 321 322 323 322 322 322 321 322 324
314 316 314 315 314 313 315 314 317 320 323 324 320 319 317 313 316 315 316 317 315 312 314 313 314 314 315 317 318 318 319 320 320 320 320 320 321 320 319 322 322 323 323 321
315 315 316 314 314 313 314 315 318 316 319 325 322 315 311 316 315 316 316 314 313 315 313 312 310 312 315 315 317 318 318 319 320 320 320 320 320 319 319 320 323 320 318 316
314 313 315 315 313 313 316 317 316 316 317 322 323 322 315 314 313 314 314 316 314 314 312 312 312 312 312 313 315 315 315 318 320 320 320 320 318 318 320 322 319 317 316 315
314 313 316 316 312 313 317 318 317 317 318 319 323 317 315 316 316 315 314 315 314 315 314 313 313 312 313 313 314 313 316 317 317 318 319 318 319 320 320 319 317 316 316 315
314 314 315 318 318 317 318 317 317 318 317 316 319 317 315 316 318 316 315 312 312 314 315 314 313 311 313 314 315 316 316 315 317 316 317 318 320 320 319 317 316 317 316 316
313 316 316 316 317 317 318 317 317 318 316 318 315 317 316 316 316 315 315 315 315 314 315 314 315 314 312 315 315 317 317 316 316 316 316 317 317 317 317 317 317 317 317 316
311 313 316 317 315 315 316 315 314 313 313 313 314 315 317 316 315 315 314 316 316 315 315 315 315 316 317 317 316 316 316 315 315 315 315 315 315 316 318 318 317 317 316 316
308 310 311 311 313 314 312 311 315 317 317 318 318 319 317 316 316 315 315 314 315 316 314 312 312 312 313 314 314 315 316 316 315 315 315 316 316 317 316 315 315 316 316 317
306 306 305 308 310 312 309 315 317 315 315 316 314 315 317 315 313 313 314 313 314 313 312 311 312 311 310 311 313 313 313 313 314 315 316 317 316 315 315 315 315 315 314 315
306 307 307 309 307 310 312 316 316 317 318 315 314 314 314 312 310 310 313 311 309 310 309 309 310 311 310 310 311 312 312 313 313 313 314 314 314 314 313 313 313 313 312 312
311 311 312 305 310 313 315 316 314 316 317 314 313 313 312 310 312 310 308 307 304 303 304 304 305 306 306 307 307 308 309 311 312 313 313 313 313 313 312 312 311 311 310 309
311 310 306 306 311 312 315 314 315 315 315 312 310 309 308 309 308 308 307 305 303 302 303 303 303 302 303 304 305 305 306 307 308 309 310 311 310 311 310 310 310 309 309 310
315 314 312 313 317 315 312 314 316 312 309 308 308 307 307 307 306 306 305 304 303 303 303 302 301 301 302 303 303 304 304 305 305 306 308 308 308 309 309 309 309 310 311 311
315 315 311 309 310 310 308 309 307 306 305 306 306 305 306 306 304 307 304 304 304 303 302 301 301 300 301 301 302 303 303 303 304 305 306 307 308 308 308 309 309 311 311 312
311 309 311 308 308 305 305 305 304 304 304 304 304 306 305 305 305 304 305 304 303 302 302 301 300 299 300 300 300 301 301 302 302 303 304 305 306 307 310 311 311 311 311 312
308 307 306 306 306 305 306 305 305 305 305 305 304 303 304 304 305 302 302 301 299 300 300 299 298 298 298 299 299 300 300 301 303 304 305 307 308 308 309 309 309 309 310 311
308 306 302 304 306 306 306 305 304 305 304 303 303 303 304 302 301 301 298 297 299 298 298 298 298 298 299 300 300 301 302 302 303 304 305 307 308 309 309 310 311 310 309 309
Wind_Speed
4 3 7 12 9 10 7 7 11 10 5 1 5 9 12 10 10 17 12 8 8 10 10 15 27 32 27 24 22 20 19 14 15 16 19 24 32 25 19 14 12 15 16 21
5 6 14 10 13 9 11 10 7 6 4 5 8 11 14 6 7 8 9 8 9 8 7 8 22 29 28 27 22 19 16 13 11 12 8 9 16 21 26 17 11 16 19 23
6 11 9 9 11 10 9 6 4 6 5 4 5 8 8 7 5 7 6 6 7 12 11 10 13 25 29 26 23 19 16 13 10 8 6 7 8 13 14 16 22 16 22 18
6 7 5 8 6 4 4 5 5 7 2 3 4 7 8 6 7 7 9 8 8 8 9 15 16 16 26 30 25 20 15 11 9 9 8 6 7 7 16 22 20 22 27 30
12 7 9 7 7 7 8 8 6 4 4 2 1 2 10 7 13 11 10 11 9 11 14 16 17 23 24 30 25 21 17 13 12 10 9 10 13 14 15 14 14 25 35 29
11 5 6 10 12 8 7 3 2 3 1 6 6 6 14 13 7 7 6 10 14 19 13 18 18 22 26 28 26 23 21 18 15 13 12 12 13 13 13 14 15 16 15 20
12 13 11 7 8 14 3 4 5 5 4 14 5 5 13 12 8 11 7 14 19 18 10 15 18 14 22 29 29 27 25 23 21 18 17 16 14 13 13 13 13 12 13 17
5 8 8 9 6 7 9 9 8 8 6 11 2 6 7 8 10 5 5 14 11 8 15 19 20 17 24 28 31 30 28 23 21 21 21 20 18 17 15 14 14 14 15 15
4 5 1 3 1 3 3 1 5 1 3 3 4 7 10 12 10 5 5 11 13 7 6 15 14 18 19 26 33 35 34 31 30 29 27 25 23 20 18 18 17 15 14 16
4 4 3 1 4 3 5 3 1 2 4 6 7 10 10 8 5 9 5 6 12 17 9 3 5 12 22 31 34 35 35 37 37 33 31 28 27 22 20 20 18 17 14 14
3 3 5 1 4 5 3 2 4 4 4 2 3 5 5 2 3 3 2 6 8 3 6 7 8 12 25 25 26 31 37 37 39 37 34 32 28 25 22 21 18 16 17 17
3 2 4 7 7 2 1 3 5 4 4 2 4 6 14 5 7 7 7 1 3 2 3 3 2 6 12 15 22 25 28 32 39 39 37 36 31 28 25 26 24 23 22 21
2 2 4 8 6 6 5 2 2 3 3 7 3 5 5 10 6 10 6 7 5 4 5 2 5 7 7 5 10 17 26 33 36 35 36 36 35 33 32 32 30 28 28 26
4 1 5 5 6 4 10 11 5 3 3 4 9 15 16 10 8 13 9 10 8 6 7 6 5 6 11 9 5 16 22 25 26 25 29 33 34 36 38 37 34 32 31 28
4 1 3 5 7 9 12 10 15 13 15 9 16 13 16 2 5 5 7 9 6 7 9 7 11 8 9 14 14 4 10 9 5 5 8 12 16 23 29 33 33 33 32 31
1 3 3 4 9 12 13 14 20 15 10 11 16 18 2 2 5 5 6 6 10 10 9 8 9 7 6 10 14 10 11 20 16 14 15 17 18 19 19 21 27 32 33 34
5 5 3 4 6 4 8 7 5 2 6 5 5 3 3 4 5 6 3 5 6 6 7 10 11 8 10 16 17 20 21 25 27 26 24 23 22 23 23 24 24 27 29 30
4 5 3 4 3 1 5 2 5 9 5 3 3 7 6 3 5 7 6 4 4 6 6 7 8 11 16 20 23 25 27 29 30 29 30 27 28 30 27 25 25 26 26 28
6 4 1 2 2 6 4 4 3 2 2 5 7 9 8 8 6 5 3 7 6 6 7 9 17 19 23 22 25 26 27 29 28 26 29 32 30 26 23 23 24 27 26 28
5 6 3 2 2 3 0 6 8 5 4 9 9 7 6 8 7 7 7 7 6 8 12 12 17 21 23 27 30 26 21 22 19 19 22 21 21 22 25 27 29 30 32 36
3 2 3 1 3 4 6 12 13 2 3 8 5 5 5 4 5 11 12 11 7 9 15 22 24 22 26 28 28 26 25 24 25 29 30 28 30 31 32 33 33 32 32 32
2 2 1 2 3 5 6 7 3 4 7 10 9 7 10 11 13 17 12 14 13 17 22 27 22 24 29 28 26 28 27 26 29 30 31 33 34 35 33 33 33 31 30 31
2 2 3 5 4 2 6 2 2 5 10 10 13 15 16 12 18 13 18 17 15 17 22 26 25 28 29 29 28 22 26 27 26 28 30 32 32 34 35 34 31 29 28 30
4 4 1 4 2 5 2 2 3 6 10 13 13 15 16 19 21 20 18 17 17 19 18 27 24 22 22 28 31 32 31 32 31 33 34 33 35 36 33 31 31 30 30 28
3 3 3 5 4 12 1 12 14 17 13 14 16 16 17 19 17 22 22 19 20 19 18 23 23 21 26 31 31 32 32 31 29 29 31 32 31 33 34 38 40 39 38 33
2 3 2 4 3 5 12 12 14 13 14 17 17 18 15 16 21 20 21 19 14 16 22 22 24 25 29 30 29 29 29 30 29 29 30 27 29 34 36 36 37 52 48 40
Wind_Direction
287 94 234 239 206 228 233 250 261 277 236 252 254 265 273 269 278 243 242 200 250 236 230 195 183 180 173 175 177 177 181 191 189 188 199 218 224 242 256 259 254 244 226 228
357 255 251 242 257 228 240 240 252 265 281 298 287 284 287 261 257 222 217 228 211 174 183 163 160 169 172 170 174 172 175 174 182 200 206 200 213 213 215 209 237 276 271 254
198 249 272 237 257 254 253 223 243 255 292 306 317 292 302 302 276 295 234 214 200 176 179 175 170 175 177 175 176 175 178 182 188 199 222 240 239 234 231 230 214 249 273 281
240 264 299 317 295 288 235 231 262 290 319 254 79 290 290 289 301 286 277 277 248 201 193 183 184 179 174 177 173 171 178 184 200 218 225 242 251 302 265 244 243 223 241 263
250 267 282 299 263 273 248 236 237 238 247 92 88 273 270 303 286 269 283 285 260 216 195 197 193 182 171 163 162 168 171 183 190 194 208 221 239 254 265 242 233 230 226 234
238 234 181 239 267 262 258 227 30 47 114 273 221 183 285 276 263 299 267 287 291 287 204 201 190 160 163 165 166 170 174 176 185 197 209 222 230 236 243 245 251 263 249 237
252 252 255 245 252 273 251 78 293 294 279 265 258 244 253 278 260 247 299 318 294 264 190 166 160 161 168 171 173 176 182 188 191 196 207 216 229 243 246 252 257 266 278 285
216 278 214 235 186 215 232 199 221 257 250 276 316 235 254 237 262 265 301 349 314 230 170 166 158 165 171 176 180 184 192 202 198 210 216 220 221 226 242 263 278 287 285 284
228 244 195 251 264 98 282 238 174 105 48 333 279 292 303 283 286 244 62 36 343 27 130 149 161 169 174 179 187 192 199 210 210 214 218 221 223 220 229 241 255 265 272 283
273 310 187 257 7 335 163 192 237 90 211 250 239 257 250 301 327 289 119 95 12 3 348 316 199 187 190 192 197 203 209 211 214 218 223 225 225 229 236 239 242 248 256 271
259 212 280 134 187 214 346 343 76 124 180 204 290 260 243 194 238 295 173 117 112 123 36 12 318 225 194 197 199 210 217 217 217 221 222 227 230 235 239 241 232 244 263 275
326 185 218 230 234 208 95 155 136 146 241 228 239 269 261 325 290 180 153 124 186 147 32 353 300 354 310 271 231 234 227 221 220 222 219 223 230 235 230 227 240 253 259 263
340 345 356 344 355 19 27 6 87 107 115 199 225 250 251 317 344 308 290 177 228 227 192 230 315 327 313 28 1 303 235 224 224 224 223 224 226 224 225 231 242 246 249 257
39 97 179 235 240 273 295 294 222 174 209 219 222 270 273 287 301 329 287 288 274 202 248 245 262 298 294 278 354 341 319 247 231 230 227 224 221 221 225 233 239 240 240 247
107 196 225 245 254 264 274 284 287 223 232 224 261 244 258 262 293 303 317 338 302 268 248 248 252 260 269 281 293 267 307 288 163 181 223 230 244 248 247 243 238 237 238 246
18 250 210 247 249 252 250 245 243 264 274 261 260 257 108 196 274 309 330 6 25 27 17 4 4 306 271 276 266 238 250 273 281 267 244 242 236 233 236 239 238 238 243 247
185 167 177 261 232 308 289 244 220 289 348 8 306 352 296 279 318 301 341 0 343 359 347 345 342 318 315 314 297 293 288 288 293 286 257 243 232 225 231 238 242 245 250 255
193 151 152 252 29 305 243 224 135 113 75 65 268 354 315 298 291 288 198 183 254 284 282 284 284 288 292 296 291 292 292 288 289 286 254 232 232 236 234 232 236 242 250 255
204 145 254 151 190 278 345 10 352 34 156 7 351 343 341 340 333 319 223 341 313 301 290 286 293 293 303 295 291 291 285 283 277 268 259 249 241 240 244 249 257 263 263 259
63 67 120 77 150 257 179 319 315 299 240 26 29 5 340 326 317 289 308 299 305 300 301 301 310 309 308 302 303 305 302 301 295 289 271 267 261 257 258 260 260 263 262 263
37 19 149 237 251 284 4 330 315 101 309 354 334 301 299 264 248 282 289 291 282 289 299 304 303 297 291 285 283 281 283 280 283 284 277 271 271 264 260 258 258 257 255 253
143 166 213 192 243 269 342 328 349 329 316 320 317 305 301 294 305 303 304 299 300 302 305 302 297 295 293 287 287 281 275 279 280 275 266 264 265 258 255 255 252 249 245 244
66 174 207 175 232 217 320 88 52 340 312 307 310 306 300 290 305 298 301 291 281 288 290 292 294 293 288 282 275 270 277 279 278 277 269 266 262 258 256 251 242 237 235 242
337 21 66 357 194 323 193 210 330 316 305 301 299 301 308 303 303 297 304 305 300 294 290 290 291 286 287 286 279 275 277 276 273 273 272 271 269 264 254 243 240 243 245 238
221 24 335 270 344 338 266 337 316 316 311 314 305 300 298 305 318 316 300 299 299 292 293 294 290 288 282 279 280 282 279 275 274 275 272 266 265 263 254 247 245 244 242 237
197 190 140 248 311 278 285 301 313 312 314 302 303 305 314 311 305 301 306 297 300 303 294 291 287 283 281 283 284 281 279 277 273 270 270 273 269 265 260 252 247 230 227 229